When you browse on this site, cookies collect data to enhance your experience and personalize the content and advertising you see.
Visit our Privacy Policy to learn more. By continuing to use the site, you agree to this use of cookies and data.
  • In Austria
  • List of Countries
  • For 7 days
  • Water Temperature
  • Weather Map
  • News
  • Weather Widgets
  • user-avatar
    Login

    Hourly Weather Wurzburg

    Today, 30 May, Saturday

    Time Temperature Precipitation Wind Pressure Humidity
    00:00 +10°C° 0 mm 3 mps 750 mmHg 81%
    01:00 +9°C° 0 mm 2 mps 750 mmHg 84%
    02:00 +8°C° 0 mm 2 mps 750 mmHg 86%
    03:00 +8°C° 0 mm 2 mps 750 mmHg 88%
    04:00 +8°C° 0 mm 2 mps 750 mmHg 89%
    05:00 +9°C° 0 mm 2 mps 750 mmHg 86%
    06:00 +10°C° 0 mm 2 mps 750 mmHg 82%
    07:00 +12°C° 0 mm 3 mps 750 mmHg 78%
    08:00 +13°C° 0 mm 3 mps 750 mmHg 71%
    09:00 +14°C° 0 mm 4 mps 750 mmHg 65%
    10:00 +16°C° 0 mm 5 mps 749 mmHg 59%
    11:00 +16°C° 0 mm 5 mps 749 mmHg 56%
    12:00 +17°C° 0 mm 5 mps 749 mmHg 54%
    13:00 +17°C° 0 mm 5 mps 749 mmHg 52%
    14:00 +17°C° 0 mm 5 mps 749 mmHg 53%
    15:00 +17°C° 0 mm 5 mps 749 mmHg 54%
    16:00 +17°C° 0 mm 5 mps 748 mmHg 55%
    17:00 +16°C° 0 mm 5 mps 748 mmHg 59%
    18:00 +15°C° 0 mm 4 mps 748 mmHg 64%
    19:00 +14°C° 0 mm 4 mps 748 mmHg 69%
    20:00 +12°C° 0 mm 3 mps 749 mmHg 71%
    21:00 +11°C° 0 mm 3 mps 749 mmHg 74%
    22:00 +10°C° 0 mm 3 mps 749 mmHg 76%
    23:00 +9°C° 0 mm 3 mps 749 mmHg 80%

    Tomorrow, 31 May, Sunday

    Time Temperature Precipitation Wind Pressure Humidity
    00:00 +8°C° 0 mm 2 mps 749 mmHg 85%
    01:00 +7°C° 0 mm 2 mps 749 mmHg 89%
    02:00 +7°C° 0 mm 2 mps 749 mmHg 90%
    03:00 +6°C° 0 mm 2 mps 749 mmHg 91%
    04:00 +6°C° 0 mm 2 mps 749 mmHg 92%
    05:00 +7°C° 0 mm 2 mps 749 mmHg 88%
    06:00 +9°C° 0 mm 2 mps 749 mmHg 84%
    07:00 +10°C° 0 mm 3 mps 749 mmHg 80%
    08:00 +11°C° 0 mm 3 mps 749 mmHg 75%
    09:00 +13°C° 0 mm 3 mps 749 mmHg 69%
    10:00 +15°C° 0 mm 4 mps 749 mmHg 64%
    11:00 +17°C° 0 mm 4 mps 749 mmHg 60%
    12:00 +18°C° 0 mm 4 mps 749 mmHg 57%
    13:00 +19°C° 0 mm 4 mps 748 mmHg 54%
    14:00 +19°C° 0 mm 4 mps 748 mmHg 54%
    15:00 +19°C° 0 mm 4 mps 748 mmHg 54%
    16:00 +19°C° 0 mm 4 mps 748 mmHg 55%
    17:00 +18°C° 0 mm 4 mps 748 mmHg 61%
    18:00 +17°C° 0 mm 4 mps 748 mmHg 67%
    19:00 +16°C° 0 mm 3 mps 748 mmHg 73%
    20:00 +14°C° 0 mm 3 mps 748 mmHg 78%
    21:00 +12°C° 0 mm 3 mps 749 mmHg 82%
    22:00 +10°C° 0 mm 2 mps 749 mmHg 87%
    23:00 +10°C° 0 mm 2 mps 749 mmHg 89%

    Day after tomorrow, 1 June, Monday

    Time Temperature Precipitation Wind Pressure Humidity
    00:00 +9°C° 0 mm 2 mps 749 mmHg 91%
    01:00 +9°C° 0 mm 2 mps 749 mmHg 93%
    02:00 +8°C° 0 mm 2 mps 749 mmHg 94%
    03:00 +8°C° 0 mm 2 mps 749 mmHg 95%
    04:00 +8°C° 0 mm 2 mps 749 mmHg 95%
    05:00 +9°C° 0 mm 2 mps 749 mmHg 92%
    06:00 +12°C° 0 mm 2 mps 749 mmHg 88%
    07:00 +12°C° 0 mm 3 mps 749 mmHg 84%
    08:00 +14°C° 0 mm 3 mps 749 mmHg 77%
    09:00 +17°C° 0 mm 4 mps 749 mmHg 69%
    10:00 +19°C° 0 mm 4 mps 749 mmHg 62%
    11:00 +20°C° 0 mm 4 mps 749 mmHg 59%
    12:00 +21°C° 0 mm 5 mps 749 mmHg 57%
    13:00 +21°C° 0 mm 5 mps 749 mmHg 55%
    14:00 +22°C° 0 mm 5 mps 748 mmHg 55%
    15:00 +22°C° 0 mm 5 mps 748 mmHg 55%
    16:00 +22°C° 0 mm 5 mps 748 mmHg 56%
    17:00 +21°C° 0 mm 4 mps 748 mmHg 61%
    18:00 +20°C° 0 mm 4 mps 748 mmHg 66%
    19:00 +19°C° 0 mm 4 mps 748 mmHg 72%
    20:00 +17°C° 0 mm 4 mps 748 mmHg 74%
    21:00 +15°C° 0 mm 4 mps 748 mmHg 76%
    22:00 +13°C° 0 mm 4 mps 748 mmHg 78%
    23:00 +12°C° 0 mm 3 mps 748 mmHg 82%

    2 June, Tuesday

    Time Temperature Precipitation Wind Pressure Humidity
    00:00 +11°C° 0 mm 3 mps 748 mmHg 86%
    01:00 +10°C° 0 mm 2 mps 748 mmHg 90%
    02:00 +9°C° 0 mm 2 mps 748 mmHg 91%
    03:00 +9°C° 0 mm 2 mps 748 mmHg 91%
    04:00 +8°C° 0 mm 2 mps 748 mmHg 92%
    05:00 +10°C° 0 mm 2 mps 748 mmHg 87%
    06:00 +12°C° 0 mm 2 mps 748 mmHg 82%
    07:00 +14°C° 0 mm 2 mps 748 mmHg 76%
    08:00 +14°C° 0 mm 3 mps 748 mmHg 70%
    09:00 +17°C° 0 mm 3 mps 748 mmHg 63%
    10:00 +19°C° 0 mm 3 mps 748 mmHg 57%
    11:00 +20°C° 0 mm 3 mps 748 mmHg 54%
    12:00 +21°C° 0 mm 3 mps 747 mmHg 51%
    13:00 +22°C° 0 mm 3 mps 747 mmHg 48%
    14:00 +22°C° 0 mm 3 mps 746 mmHg 48%
    15:00 +24°C° 0 mm 2 mps 746 mmHg 48%
    16:00 +24°C° 0 mm 2 mps 745 mmHg 48%
    17:00 +23°C° 0 mm 2 mps 745 mmHg 54%
    18:00 +22°C° 0 mm 1 mps 745 mmHg 61%
    19:00 +21°C° 0 mm 1 mps 744 mmHg 67%
    20:00 +19°C° 0 mm 1 mps 744 mmHg 72%
    21:00 +16°C° 0 mm 2 mps 744 mmHg 77%
    22:00 +14°C° 0 mm 2 mps 744 mmHg 83%
    23:00 +14°C° 0 mm 2 mps 744 mmHg 85%

    3 June, Wednesday

    Time Temperature Precipitation Wind Pressure Humidity
    00:00 +13°C° 0 mm 2 mps 744 mmHg 87%
    01:00 +12°C° 0 mm 2 mps 743 mmHg 90%
    02:00 +12°C° 0 mm 1 mps 743 mmHg 90%
    03:00 +11°C° 0 mm 1 mps 743 mmHg 90%
    04:00 +11°C° 0 mm 1 mps 742 mmHg 91%
    05:00 +12°C° 0 mm 1 mps 742 mmHg 87%
    06:00 +14°C° 0 mm 1 mps 742 mmHg 83%
    07:00 +15°C° 0 mm 1 mps 741 mmHg 79%
    08:00 +17°C° 0 mm 2 mps 741 mmHg 74%
    09:00 +19°C° 0 mm 2 mps 741 mmHg 68%
    10:00 +20°C° 0 mm 2 mps 741 mmHg 63%
    11:00 +21°C° 0 mm 2 mps 740 mmHg 59%
    12:00 +23°C° 0 mm 2 mps 740 mmHg 55%
    13:00 +24°C° 0 mm 2 mps 739 mmHg 51%
    14:00 +24°C° 0 mm 2 mps 739 mmHg 50%
    15:00 +25°C° 0 mm 2 mps 738 mmHg 50%
    16:00 +25°C° 0 mm 2 mps 738 mmHg 49%
    17:00 +24°C° 0 mm 2 mps 738 mmHg 56%
    18:00 +23°C° 0 mm 2 mps 737 mmHg 62%
    19:00 +21°C° 0 mm 2 mps 737 mmHg 68%
    20:00 +19°C° 0 mm 3 mps 737 mmHg 70%
    21:00 +17°C° 0 mm 3 mps 737 mmHg 72%
    22:00 +14°C° 0 mm 3 mps 737 mmHg 73%
    23:00 +13°C° 0 mm 3 mps 737 mmHg 78%

    4 June, Thursday

    Time Temperature Precipitation Wind Pressure Humidity
    00:00 +14°C° 0 mm 2 mps 737 mmHg 83%
    01:00 +13°C° 0 mm 2 mps 737 mmHg 88%
    02:00 +12°C° 0 mm 2 mps 736 mmHg 90%
    03:00 +12°C° 0 mm 2 mps 736 mmHg 91%
    04:00 +12°C° 0 mm 1 mps 736 mmHg 93%
    05:00 +13°C° 0 mm 2 mps 736 mmHg 88%
    06:00 +14°C° 0 mm 2 mps 736 mmHg 84%
    07:00 +15°C° 0 mm 2 mps 736 mmHg 79%
    08:00 +17°C° 0 mm 3 mps 736 mmHg 74%
    09:00 +19°C° 0 mm 3 mps 735 mmHg 68%
    10:00 +20°C° 0 mm 3 mps 735 mmHg 62%
    11:00 +21°C° 0 mm 3 mps 735 mmHg 58%
    12:00 +24°C° 0 mm 3 mps 735 mmHg 53%
    13:00 +25°C° 0 mm 2 mps 735 mmHg 49%
    14:00 +25°C° 0 mm 2 mps 734 mmHg 49%
    15:00 +25°C° 0 mm 2 mps 734 mmHg 49%
    16:00 +25°C° 0 mm 1 mps 734 mmHg 49%
    17:00 +23°C° 0 mm 2 mps 734 mmHg 61%
    18:00 +20°C° 0 mm 2 mps 734 mmHg 73%
    19:00 +18°C° 0 mm 2 mps 734 mmHg 85%
    20:00 +18°C° 0 mm 2 mps 734 mmHg 86%
    21:00 +17°C° 0 mm 2 mps 734 mmHg 87%
    22:00 +18°C° 0 mm 1 mps 734 mmHg 89%
    23:00 +16°C° 0 mm 1 mps 734 mmHg 90%
    Show more